Weather History for Barksdale AFB, LA

Change the Weather History Date:

Friday, September 6, 2013

  Actual Average Record
Temperature  
Mean Temperature 84 °F -  
Max Temperature 99 °F 87 °F 101 °F (2012)
Min Temperature 69 °F 66 °F 55 °F (2011)
Cooling Degree Days 18    
Growing Degree Days 34 (Base 50)    
Moisture  
Dew Point 62 °F    
Average Humidity 50    
Maximum Humidity 73    
Minimum Humidity 25    
Precipitation  
Precipitation 0.00 in - - ()
Sea Level Pressure  
Sea Level Pressure 30.04 in    
Wind  
Wind Speed 3 mph (ESE)    
Max Wind Speed 6 mph    
Max Gust Speed -    
Visibility 10 miles    
Events      
Averages and records for this station are not official NWS values.
T = Trace of Precipitation, MM = Missing Value Source: NWS Daily Summary

Daily Weather History Graph

Daily Weather History Graph

Search for Another Location

Airport:

Trip Planner

Search our weather history database for the weather conditions in past years. The results will help you decide how hot, cold, wet, or windy it might be!

Date:

Astronomy

Sep. 06, 2013 Rise Set
Actual Time 6:52 AM CDT 7:32 PM CDT
Civil Twilight 6:28 AM CDT 7:57 PM CDT
Nautical Twilight 5:58 AM CDT 8:26 PM CDT
Astronomical Twilight 5:28 AM CDT 8:56 PM CDT
Moon 7:58 AM CDT (9/6) 8:05 PM CDT (9/6)
Length of Visible Light 13h 29m
Length of Day
12h 39m
New Moon, 2% of the Moon is Illuminated
Sep 6
New Moon
Sep 12
First Quarter
Sep 19
Full
Sep 26
Last Quarter
Oct 4
New

Hourly Weather History & Observations

Time (CDT) Temp. Heat Index Dew Point Humidity Pressure Visibility Wind Dir Wind Speed Gust Speed Precip Events Conditions
12:58 AM 77.9 °F - 58.8 °F 52% 30.07 in 10.0 mi SSE 4.6 mph - N/A   Clear
1:58 AM 74.1 °F - 59.7 °F 61% 30.06 in 10.0 mi NE 4.6 mph - N/A   Clear
2:58 AM 73.8 °F - 59.5 °F 61% 30.06 in 10.0 mi NNE 2.3 mph - N/A   Clear
3:58 AM 72.7 °F - 59.7 °F 64% 30.06 in 10.0 mi North 2.3 mph - N/A   Clear
4:58 AM 71.2 °F - 59.5 °F 66% 30.06 in 10.0 mi NNE 3.5 mph - N/A   Clear
5:58 AM 70.2 °F - 60.4 °F 71% 30.06 in 10.0 mi Calm Calm - N/A   Clear
6:58 AM 69.1 °F - 60.1 °F 73% 30.08 in 10.0 mi SSE 2.3 mph - N/A   Clear
7:58 AM 72.0 °F - 62.4 °F 72% 30.09 in 10.0 mi Calm Calm - N/A   Clear
8:58 AM 77.2 °F - 63.7 °F 63% 30.10 in 10.0 mi Variable 1.2 mph - N/A   Clear
9:58 AM 83.5 °F 85.1 °F 64.8 °F 53% 30.11 in 10.0 mi West 1.2 mph - N/A   Clear
10:58 AM 88.2 °F 90.9 °F 66.6 °F 49% 30.11 in 10.0 mi Variable 2.3 mph - N/A   Clear
11:58 AM 92.8 °F 96.1 °F 66.6 °F 42% 30.09 in 10.0 mi Variable 2.3 mph - N/A   Clear
12:58 PM 95.4 °F 97.6 °F 64.8 °F 36% 30.06 in 10.0 mi South 4.6 mph - N/A   Clear
1:58 PM 97.2 °F 96.4 °F 57.9 °F 27% 30.04 in 10.0 mi Variable 1.2 mph - N/A   Clear
2:58 PM 98.1 °F 97.7 °F 58.8 °F 27% 30.01 in 10.0 mi NNE 4.6 mph - N/A   Partly Cloudy
3:58 PM 98.1 °F 96.8 °F 56.8 °F 25% 29.99 in 10.0 mi Variable 2.3 mph - N/A   Clear
4:58 PM 98.4 °F 98.2 °F 59.2 °F 27% 29.96 in 10.0 mi South 5.8 mph - N/A   Clear
5:58 PM 97.2 °F 97.2 °F 59.5 °F 29% 29.96 in 10.0 mi East 5.8 mph - N/A   Clear
6:58 PM 93.6 °F 94.2 °F 61.7 °F 35% 29.96 in 10.0 mi ENE 4.6 mph - N/A   Clear
7:58 PM 89.8 °F 90.0 °F 61.9 °F 39% 29.97 in 10.0 mi East 4.6 mph - N/A   Clear
8:58 PM 84.0 °F 84.9 °F 62.8 °F 49% 29.99 in 10.0 mi ESE 5.8 mph - N/A   Clear
9:58 PM 80.8 °F 82.1 °F 63.3 °F 55% 30.00 in 10.0 mi ESE 4.6 mph - N/A   Clear
10:58 PM 79.3 °F - 64.8 °F 61% 29.99 in 10.0 mi SSE 5.8 mph - N/A   Clear
11:58 PM 78.3 °F - 65.7 °F 65% 29.99 in 10.0 mi SSE 5.8 mph - N/A   Clear